Terug naar catalogus

FENGYUN 1C DEB

ActiefSSO
NORAD 37907·DEBRIS·🇨🇳 China

Gelanceerd May 10, 1999 vanaf Taiyuan Satellite Launch Center

Loading…

Volgende Passages (komende 24 uur)

TLE

VersSource: Space-Track

Epoch: Sep 14, 2026, 13:54 UTC

1 37907U 99025ENG 26257.57923541  .00003147  00000-0  13123-2 0  9996
2 37907  99.0883  25.1213 0059518 113.8967 246.8462 14.26041398872010

Volg FENGYUN 1C DEB in realtime met AllMySat

Download on the App Store